Torna al catalogo

STARLINK-34744

AttivoComunicazioniSSO
NORAD 64952·PAYLOAD·🇺🇸 United States

Lanciato Jul 26, 2025 da Vandenberg Space Force Base

Loading…

Prossimi Passaggi (prossime 24 ore)

TLE

AggiornatoSource: CelesTrak SupGP

Epoca: Sep 15, 2026, 03:47 UTC

1 64952C 25158W   26258.15812500 -.00025116  00000+0 -77890-3 0  2580
2 64952  97.2844 116.5570 0001695 106.3624  99.8329 15.33482221    12

Traccia STARLINK-34744 in tempo reale con AllMySat

Download on the App Store